Regional Weather Roundup
Issued by NWS Little Rock, AR

Home | Current Version | Previous Version | Text Only | Print | Product List | Glossary On
Versions: 1 2 3 4 5 6 7 8 9 10 11 12 13 14 15 16 17 18 19 20 21 22 23 24 25 26 27 28 29 30 31 32 33 34 35 36 37 38 39 40 41 42 43 44 45 46 47 48 49 50
000
ASUS44 KLZK 182305
RWRLZK

WEATHER ROUNDUP FOR ARKANSAS
NATIONAL WEATHER SERVICE LITTLE ROCK AR
500 PM CST TUE DEC 18 2018

NOTE: "FAIR" INDICATES FEW OR NO CLOUDS BELOW 12,000 FEET WITH NO
SIGNIFICANT WEATHER AND/OR OBSTRUCTIONS TO VISIBILITY.

ARZ001-003-010-029-190000-
NORTHWEST ARKANSAS

CITY           SKY/WX    TMP DP  RH WIND       PRES   REMARKS
FAYETTEVILLE   CLOUDY    52  40  63 S3        30.02S
FORT SMITH     MOCLDY    57  45  64 E6        30.02S
HARRISON       CLOUDY    51  39  63 S6        30.02F
BENTONVILLE    CLOUDY    52  41  66 S6        30.03F
ROGERS         CLOUDY    53  40  61 S8        30.02S
SILOAM SPGS    CLOUDY    52  41  66 S5        30.02F
HIGHFILL       CLOUDY    53  39  59 S8        30.01F
SPRINGDALE     MOCLDY    54  41  62 SE5       30.03F
$$

ARZ004-005-016-190000-
NORTH CENTRAL ARKANSAS

CITY           SKY/WX    TMP DP  RH WIND       PRES   REMARKS
BATESVILLE     CLEAR     49  38  65 E7        30.08F
FLIPPIN        PTCLDY    54  34  46 SE5       30.04F
MTN HOME       MOCLDY    51  33  50 E3        30.03F
$$

ARZ040-041-190000-
WEST CENTRAL ARKANSAS

CITY           SKY/WX    TMP DP  RH WIND       PRES   REMARKS
MENA           MOCLDY    54  46  76 CALM      30.03F
MOUNT IDA      CLOUDY    55  46  71 CALM      30.01F
$$

ARZ009-017-025-026-028-190000-
NORTHEAST ARKANSAS

CITY           SKY/WX    TMP DP  RH WIND       PRES   REMARKS
CORNING        FAIR      48  39  71 E6        30.10F
JONESBORO      FAIR      50  36  58 E5        30.09F
NEWPORT        FAIR      49  44  83 E3        30.09F
WALNUT RIDGE   HAZE      46  39  76 NE6       30.09F VSB 1/2
BLYTHEVILLE    FAIR      49  35  58 NE5       30.10F
$$

ARZ022-023-033-042-044-190000-
CENTRAL ARKANSAS

CITY           SKY/WX    TMP DP  RH WIND       PRES   REMARKS
LITTLE ROCK    CLOUDY    52  42  69 E6        30.07F
N LITTLE ROCK    N/A     53  45  75 SE5       30.11F
BENTON         CLOUDY    55  46  71 CALM      30.06F
JACKSONVILLE   PTCLDY    53  42  64 SE3       30.06F
CONWAY         CLEAR     55  46  71 CALM      30.06S
SEARCY         FAIR      51  40  65 CALM      30.08F
HOT SPRINGS    CLOUDY    56  49  77 SE5       30.05F
RUSSELLVILLE   CLOUDY    53  44  71 E3        30.04F
CLINTON        FAIR      50  45  81 CALM      30.06F
$$

ARZ036-190000-
EAST ARKANSAS

CITY           SKY/WX    TMP DP  RH WIND       PRES   REMARKS
WEST MEMPHIS   FAIR      54  45  71 CALM      30.08F
$$

ARZ050-053-066-070-073-190000-
SOUTHWEST ARKANSAS

CITY           SKY/WX    TMP DP  RH WIND       PRES   REMARKS
ARKADELPHIA    CLOUDY    56  53  90 S8        30.05F
CAMDEN         CLOUDY    54  48  82 S5        30.06F HAZE
TEXARKANA      MOCLDY    49  49 100 E6        30.04F
EL DORADO      CLOUDY    49  47  93 E3        30.07F
DE QUEEN       CLOUDY    51  47  86 E6        30.03F
$$

ARZ056-057-069-190000-
SOUTHEAST ARKANSAS

CITY           SKY/WX    TMP DP  RH WIND       PRES   REMARKS
PINE BLUFF     FAIR      53  48  83 E6        30.07F
STUTTGART      HAZE      56  44  64 SE3       30.09S VSB 1/2
MONTICELLO     CLOUDY    57  50  77 CALM      30.08S

$$





USA.gov is the U.S. government's official web portal to all federal, state and local government web resources and services.